Regional Weather Roundup
Issued by NWS Wakefield, VA

Home | Current Version | Previous Version | Graphics & Text | Print | Product List | Glossary On
Versions: 1 2 3 4 5 6 7 8 9 10 11 12 13 14 15 16 17 18 19 20 21 22 23 24 25 26 27 28 29 30 31 32 33 34 35 36 37 38 39 40 41 42 43 44 45 46 47 48 49 50
000
ASUS41 KAKQ 241616
RWRAKQ

REGIONAL WEATHER ROUNDUP
NATIONAL WEATHER SERVICE WAKEFIELD VA
1200 PM EDT SUN SEP 24 2017

Note: "fair" indicates few or no clouds below 12,000 feet with no
significant weather and/or obstructions to visibility. * = Denotes
station may not report precipitation (e.g., rain,snow,etc.),
thunder or fog.

VAZ042-051-052>054-056-241700-
NORTHERN VIRGINIA

CITY           SKY/WX    TMP DP  RH WIND       PRES   REMARKS
WASH NATIONAL  MOSUNNY   86  65  49 E5        30.09F
DULLES         MOSUNNY   83  65  54 NE6       30.11F
FORT BELVOIR   SUNNY     85  64  47 CALM      30.09F
QUANTICO       SUNNY     82  69  64 E9        30.10F
FREDERICKSBRG* SUNNY     83  65  56 NE5       30.09S
STAFFORD*      SUNNY     83  63  51 N6        30.14S
WARRENTON      SUNNY     86  59  39 N10       30.10F
CULPEPER*      SUNNY     86  65  50 N8        30.11F
MANASSAS*      SUNNY     85  65  51 N8        30.10F
LEESBURG*      SUNNY     84  66  54 NE6       30.12F
WINCHESTER     SUNNY     79  61  53 NE5       30.15F
FRONT ROYAL*   SUNNY     79  61  53 CALM      30.14F
LURAY*         SUNNY     81  59  47 N5        30.15F
$$

VAZ048-049-060>072-079>083-241700-
CENTRAL AND SOUTH CENTRAL VIRGINIA

CITY           SKY/WX    TMP DP  RH WIND       PRES   REMARKS
RICHMOND       PTSUNNY   85  63  47 N10       30.07F
CHESTERFIELD*  NOT AVBL
PETERSBURG*    SUNNY     83  59  44 N6        30.09S
HANOVER        SUNNY     85  64  49 N6        30.09F
TAPPAHANNOCK*  SUNNY     85  57  38 N5        30.09S
QUINTON*       FAIR      83  65  56 N6        30.07F
CHARLOTTSVILLE SUNNY     86  63  45 E7        30.12S
GORDONSVILLE*  SUNNY     83  65  55 N8        30.10F
ORANGE*        SUNNY     82  63  51 N6        30.11F
LOUISA*        SUNNY     82  63  51 N7        30.10F
BUMPASS*       FAIR      82  66  58 NW3       30.10S
FARMVILLE*     SUNNY     86  62  44 NE9       30.09F
CREWE*         FAIR      82  64  53 NE3       30.09F
FORT PICKETT*  FAIR      83  61  47 N8        30.09F
CHASE CITY*    FAIR      83  59  44 N7        30.10F
CLARKSVILLE*   FAIR      82  61  47 E3        30.10S
SOUTH HILL*    SUNNY     82  63  52 NE3       30.15S
LAWRENCEVILLE* FAIR      82  61  49 CALM      30.09S
EMPORIA*       SUNNY     81  61  50 N3        30.09S
$$

VAZ088>098-241700-
SOUTHEAST VIRGINIA

CITY           SKY/WX    TMP DP  RH WIND       PRES   REMARKS
NORFOLK        MOSUNNY   80  70  71 N10       30.06S
VIRGINIA BEACH PTSUNNY   83  64  52 N8        30.04S
NORFOLK NAVAL  PTSUNNY   83  69  62 N12       30.07S
WEST POINT*    SUNNY     84  61  45 NE9       30.08F
SALUDA*        FAIR      82  67  60 CALM      30.07S
NEWPORT NEWS   SUNNY     85  62  46 NE9       30.06S
LANGLEY AFB    MOSUNNY   82  66  59 NE9       30.06S
FORT EUSTIS    SUNNY     89  63  41 N6        30.04S
WILLIAMSBURG*  SUNNY     88  66  48 E3        30.07F
HR EXEC AP*    FAIR      82  65  56 N6        30.07S
FRANKLIN*      SUNNY     84  63  49 NE8       30.07S
US460-WAKEFLD  SUNNY     84  65  52 VRB3      30.07S
$$

VAZ020-022-025-037-045-241700-
WEST CENTRAL AND SOUTHWEST VIRGINIA

CITY           SKY/WX    TMP DP  RH WIND       PRES   REMARKS
STAUNTON*      SUNNY     78  57  49 NE5       30.18F
WAYNESBORO*    SUNNY     77  59  55 NW6       30.18F
HOT SPRINGS VA SUNNY     73  50  45 E10       30.29S
LYNCHBURG      SUNNY     82  57  42 N8        30.13F
DANVILLE       SUNNY     81  61  50 NE8       30.11F
SOUTH BOSTON*  FAIR      83  60  45 E6        30.10F
MARTINSVILLE   SUNNY     81  60  48 E6        30.16F
ROANOKE        MOSUNNY   80  56  43 N8        30.17F
BLACKSBURG     SUNNY     79  55  44 E9        30.22F
DUBLIN*        SUNNY     77  58  50 NE6       30.21F
MARION*        SUNNY     78  53  41 E6        30.23F
HILLSVILLE*    SUNNY     74  54  50 CALM      30.21F
RICHLANDS*     FAIR      80  53  39 SE5       30.21S
WISE*          SUNNY     77  52  41 SE5       30.22F
ABINGDON*      SUNNY     78  58  49 CALM      30.18F
$$

MDZ021>025-VAZ099-100-241700-
SOUTHERN MARYLAND AND THE DELMARVA PENINSULA

CITY           SKY/WX    TMP DP  RH WIND       PRES   REMARKS
PATUXENT RIVER PTSUNNY   82  64  54 N7        30.07F
BAY BRIDGE APT SUNNY     79  68  69 N7        30.09S
LEONARDTOWN    SUNNY     79  64  61 N3        30.10S
DOVER          SUNNY     82  63  51 NE7       30.06F
GEORGETOWN     SUNNY     84  60  44 NE9       30.08S
EASTON         MOSUNNY   86  63  45 NE6       30.11F
CAMBRIDGE      SUNNY     82  63  51 N6        30.07F
SALISBURY      SUNNY     85  64  49 NE8       30.06F
OCEAN CITY     SUNNY     79  66  64 NE12      30.07F
WALLOPS ISLAND SUNNY     80  69  69 NE10      30.07S
ACCOMACK*      SUNNY     83  67  58 NE5       30.06S
$$

NCZ012>017-030>032-241700-
NORTH CENTRAL AND EASTERN NORTH CAROLINA

CITY           SKY/WX    TMP DP  RH WIND       PRES   REMARKS
ROANOKE RAPIDS FAIR      81  66  61 N5        30.08S
RALEIGH        PTSUNNY   81  65  58 NE10      30.10S
ELIZABETH CITY MOSUNNY   83  67  58 NE10      30.05S
AHOSKIE*       SUNNY     80  66  60 NE5       30.07S
EDENTON*       MOSUNNY   83  68  61 CALM      30.06F
CURRITUCK*     NOT AVBL
KILL DEVIL HLS MOSUNNY   76  67  72 CALM      30.04S
MANTEO         MOSUNNY   78  69  72 NE9       30.05S
CAPE HATTERAS  SUNNY     80  69  69 NE10G22   30.03S
TARBORO*       NOT AVBL
GOLDSBORO      SUNNY     81  71  73 NE8       30.05F
WASHINGTON     SUNNY     82  69  64 N7        30.06F
GREENVILLE     SUNNY     81  68  65 N6        30.08S
NEW BERN       PTSUNNY   83  69  62 NE10      30.05F
WILMINGTON     MOSUNNY   83  67  58 NE18      30.02S
$$

VAZ048-241700-
ELSEWHERE

CITY           SKY/WX    TMP DP  RH WIND       PRES   REMARKS
HARRISBURG PA  SUNNY     83  67  58 W8        30.10F
BALTIMORE      MOSUNNY   86  64  47 E10       30.08F
ANNAPOLIS      SUNNY     83  68  60 N6        30.08F
ANDREWS AFB    SUNNY     82  64  54 N5        30.09F
PHILADELPHIA   SUNNY     86  65  49 E9        30.08F
HENDERSON NC   SUNNY     80  60  49 N10       30.10S
GREENSBORO     PTSUNNY   81  65  58 NE8       30.12S
ROCKY MOUNT    SUNNY     83  67  58 NE7       30.07F
$$

VAZ100-241700-
MARINE

STATION/POSITION TIME  TEMP    WIND        PRES    WAVE   SWELL
                       AIR SEA DIR/SP/G            HT/PER HT/PER
                 (UTC) (F)     (DEG/KT/KT) (MB)    (FT/S) (FT/S)
BRANDYWINE LGT   1542   75     340/  3/  4 1018.8F
CAPE MAY NJ      1548   77 74  250/  7/  8 1017.8F
LEWES DE         1542   74 74   30/  1/  3 1018.4F
15NM E FENWICK I 1450   72 71   20/  8/  8 1018.6    3/12   3/12
OCEAN-CITY-INLET 1548   76 74   70/  5/  8 1018.7F
WACHAPREAGUE VA  1548   78 77   60/  8/ 10 1018.1R
THOMAS POINT MD  1600   76 76   20/  7/  8   N/A
GOOSES REEF MD   1600   76 76  360/  8/ 10 1019.4    0
COVE POINT MD    1548   75     350/ 10/ 12 1019.3F
SOLOMONS ISLAND  1542   79 77   10/  5/  8 1018.1F
BISHOPS HEAD MD  1548   81 77   10/  3/  6 1018.5F
PINEY POINT MD   1548          330/  6/  7   N/A
POTOMAC MD       1600   77 76   30/  8/ 10 1017.7    0
CAMBRIDGE MD     1548   83 77              1019.4F
LEWISETTA VA     1548   79 77  360/  4/  6 1018.3F
RAPPAHANNOCK LGT 1548           10/ 11/ 12 1018.7R
STINGRAY PT      1600   77 77   40/ 10/ 12 1018.6    1/ 2
YORK RVR RNG VA  1548   79      30/  5/  5 1018.5R
YORKTOWN VA      1548   81 77   40/  5/  6 1017.7S
JAMESTOWN VA     1600      79  280/  6/  8   N/A     0
DOMINION TERM VA 1548   79     140/  3/  5 1018.1S
KIPTOPEKE VA     1542      76   60/ 10/ 12   N/A
CHES BAY BRIDGE  1548   75 76  360/ 11/ 13 1017.8R
CAPE HENRY VA    1548   76     350/  6/  7   N/A
WILLOUBY STN VA  1542   76      30/ 12/ 12 1018.0S
S CRANEY ISL VA  1548   79      20/  7/ 10 1017.7S
CAPE HENRY BUOY  1530      75                N/A     4/14   2/14
1ST LANDING BUOY 1600   76 76              1017.6    2/ 4
64NM E OF VA BCH 1550   71 71   60/  6/  8 1018.0R   8/13   8/13
DUCK PIER NC     1548   75 77   20/ 11/ 12 1017.3S
44100 DUCK FRF   1535      75                N/A     5/13   3/13
44056 DUCK FRF   1530      76                N/A     4/14   3/14
OREGON INLET NC  1542   75 76   30/ 10/ 13 1017.4R
HATTERAS NC      1548   76 77   40/ 13/ 18 1016.9R
DIAMOND SHLS NC  1550   74 79   30/ 19/ 23 1015.8F   8/13   8/13
CAPE LOOKOUT NC  1600   78      40/ 22/ 24 1016.0F
$$



USA.gov is the U.S. government's official web portal to all federal, state and local government web resources and services.